Year,Month,Day,Hour,Minute,Value (Times are PST for temperature in C)
2010,05,18,00,00,12.50
2010,05,18,00,01,12.40
2010,05,18,00,02,12.40
2010,05,18,00,03,12.40
2010,05,18,00,04,12.40
2010,05,18,00,05,12.40
2010,05,18,00,06,12.40
2010,05,18,00,07,12.40
2010,05,18,00,08,12.40
2010,05,18,00,09,12.40
2010,05,18,00,10,12.40
2010,05,18,00,11,12.40
2010,05,18,00,12,12.30
2010,05,18,00,13,12.30
2010,05,18,00,14,12.30
2010,05,18,00,15,12.30
2010,05,18,00,16,12.30
2010,05,18,00,17,12.30
2010,05,18,00,18,12.30
2010,05,18,00,19,12.30
2010,05,18,00,20,12.30
2010,05,18,00,21,12.30
2010,05,18,00,22,12.30
2010,05,18,00,23,12.30
2010,05,18,00,24,12.30
2010,05,18,00,25,12.30
2010,05,18,00,26,12.20
2010,05,18,00,27,12.20
2010,05,18,00,28,12.20
2010,05,18,00,29,12.20
2010,05,18,00,30,12.20
2010,05,18,00,31,12.20
2010,05,18,00,32,12.20
2010,05,18,00,33,12.20
2010,05,18,00,34,12.20
2010,05,18,00,35,12.20
2010,05,18,00,36,12.20
2010,05,18,00,37,12.10
2010,05,18,00,38,12.10
2010,05,18,00,39,12.10
2010,05,18,00,40,12.10
2010,05,18,00,41,12.00
2010,05,18,00,42,12.00
2010,05,18,00,43,11.90
2010,05,18,00,44,11.90
2010,05,18,00,45,11.90
2010,05,18,00,46,11.90
2010,05,18,00,47,11.90
2010,05,18,00,48,11.90
2010,05,18,00,49,11.90
2010,05,18,00,50,12.00
2010,05,18,00,51,12.00
2010,05,18,00,52,11.90
2010,05,18,00,53,11.90
2010,05,18,00,54,11.90
2010,05,18,00,55,11.90
2010,05,18,00,56,11.90
2010,05,18,00,57,11.90
2010,05,18,00,58,11.90
2010,05,18,00,59,11.90
2010,05,18,01,00,11.90
2010,05,18,01,01,11.90
2010,05,18,01,02,11.90
2010,05,18,01,03,11.90
2010,05,18,01,04,11.90
2010,05,18,01,05,11.90
2010,05,18,01,06,11.90
2010,05,18,01,07,11.90
2010,05,18,01,08,11.90
2010,05,18,01,09,12.00
2010,05,18,01,10,12.00
2010,05,18,01,11,12.10
2010,05,18,01,12,12.10
2010,05,18,01,13,12.10
2010,05,18,01,14,12.10
2010,05,18,01,15,12.10
2010,05,18,01,16,12.00
2010,05,18,01,17,12.00
2010,05,18,01,18,11.90
2010,05,18,01,19,11.90
2010,05,18,01,20,11.90
2010,05,18,01,21,11.90
2010,05,18,01,22,11.80
2010,05,18,01,23,11.80
2010,05,18,01,24,11.80
2010,05,18,01,25,11.80
2010,05,18,01,26,11.90
2010,05,18,01,27,11.80
2010,05,18,01,28,11.80
2010,05,18,01,29,11.80
2010,05,18,01,30,11.80
2010,05,18,01,31,11.70
2010,05,18,01,32,11.70
2010,05,18,01,33,11.70
2010,05,18,01,34,11.70
2010,05,18,01,35,11.70
2010,05,18,01,36,11.70
2010,05,18,01,37,11.70
2010,05,18,01,38,11.70
2010,05,18,01,39,11.60
2010,05,18,01,40,11.60
2010,05,18,01,41,11.60
2010,05,18,01,42,11.60
2010,05,18,01,43,11.50
2010,05,18,01,44,11.50
2010,05,18,01,45,11.40
2010,05,18,01,46,11.40
2010,05,18,01,47,11.40
2010,05,18,01,48,11.30
2010,05,18,01,49,11.30
2010,05,18,01,50,11.30
2010,05,18,01,51,11.30
2010,05,18,01,52,11.30
2010,05,18,01,53,11.30
2010,05,18,01,54,11.30
2010,05,18,01,55,11.30
2010,05,18,01,56,11.30
2010,05,18,01,57,11.30
2010,05,18,01,58,11.20
2010,05,18,01,59,11.20
2010,05,18,02,00,11.20
2010,05,18,02,01,11.30
2010,05,18,02,02,11.30
2010,05,18,02,03,11.30
2010,05,18,02,04,11.40
2010,05,18,02,05,11.40
2010,05,18,02,06,11.40
2010,05,18,02,07,11.40
2010,05,18,02,08,11.40
2010,05,18,02,09,11.40
2010,05,18,02,10,11.40
2010,05,18,02,11,11.40
2010,05,18,02,12,11.30
2010,05,18,02,13,11.30
2010,05,18,02,14,11.40
2010,05,18,02,15,11.40
2010,05,18,02,16,11.40
2010,05,18,02,17,11.40
2010,05,18,02,18,11.40
2010,05,18,02,19,11.50
2010,05,18,02,20,11.50
2010,05,18,02,21,11.50
2010,05,18,02,22,11.50
2010,05,18,02,23,11.40
2010,05,18,02,24,11.40
2010,05,18,02,25,11.40
2010,05,18,02,26,11.40
2010,05,18,02,27,11.40
2010,05,18,02,28,11.30
2010,05,18,02,29,11.30
2010,05,18,02,30,11.30
2010,05,18,02,31,11.30
2010,05,18,02,32,11.30
2010,05,18,02,33,11.30
2010,05,18,02,34,11.30
2010,05,18,02,35,11.30
2010,05,18,02,36,11.40
2010,05,18,02,37,11.40
2010,05,18,02,38,11.40
2010,05,18,02,39,11.40
2010,05,18,02,40,11.50
2010,05,18,02,41,11.50
2010,05,18,02,42,11.50
2010,05,18,02,43,11.50
2010,05,18,02,44,11.60
2010,05,18,02,45,11.60
2010,05,18,02,46,11.60
2010,05,18,02,47,11.70
2010,05,18,02,48,11.70
2010,05,18,02,49,11.70
2010,05,18,02,50,11.80
2010,05,18,02,51,11.80
2010,05,18,02,52,11.80
2010,05,18,02,53,11.90
2010,05,18,02,54,11.90
2010,05,18,02,55,11.90
2010,05,18,02,56,12.00
2010,05,18,02,57,12.10
2010,05,18,02,58,12.20
2010,05,18,02,59,12.20
2010,05,18,03,00,12.30
2010,05,18,03,01,12.40
2010,05,18,03,02,12.50
2010,05,18,03,03,12.60
2010,05,18,03,04,12.60
2010,05,18,03,05,12.70
2010,05,18,03,06,12.80
2010,05,18,03,07,12.90
2010,05,18,03,08,13.00
2010,05,18,03,09,13.10
2010,05,18,03,10,13.10
2010,05,18,03,11,13.10
2010,05,18,03,12,13.20
2010,05,18,03,13,13.10
2010,05,18,03,14,13.10
2010,05,18,03,15,13.10
2010,05,18,03,16,13.10
2010,05,18,03,17,13.10
2010,05,18,03,18,13.20
2010,05,18,03,19,13.30
2010,05,18,03,20,13.40
2010,05,18,03,21,13.40
2010,05,18,03,22,13.50
2010,05,18,03,23,13.50
2010,05,18,03,24,13.60
2010,05,18,03,25,13.60
2010,05,18,03,26,13.60
2010,05,18,03,27,13.60
2010,05,18,03,28,13.60
2010,05,18,03,29,13.50
2010,05,18,03,30,13.40
2010,05,18,03,31,13.40
2010,05,18,03,32,13.30
2010,05,18,03,33,13.20
2010,05,18,03,34,13.20
2010,05,18,03,35,13.20
2010,05,18,03,36,13.10
2010,05,18,03,37,13.10
2010,05,18,03,38,13.10
2010,05,18,03,39,13.20
2010,05,18,03,40,13.20
2010,05,18,03,41,13.30
2010,05,18,03,42,13.30
2010,05,18,03,43,13.40
2010,05,18,03,44,13.40
2010,05,18,03,45,13.40
2010,05,18,03,46,13.50
2010,05,18,03,47,13.60
2010,05,18,03,48,13.60
2010,05,18,03,49,13.60
2010,05,18,03,50,13.60
2010,05,18,03,51,13.60
2010,05,18,03,52,13.70
2010,05,18,03,53,13.70
2010,05,18,03,54,13.70
2010,05,18,03,55,13.70
2010,05,18,03,56,13.70
2010,05,18,03,57,13.70
2010,05,18,03,58,13.70
2010,05,18,03,59,13.70
2010,05,18,04,00,13.70
2010,05,18,04,01,13.70
2010,05,18,04,02,13.70
2010,05,18,04,03,13.70
2010,05,18,04,04,13.70
2010,05,18,04,05,13.70
2010,05,18,04,06,13.60
2010,05,18,04,07,13.60
2010,05,18,04,08,13.60
2010,05,18,04,09,13.60
2010,05,18,04,10,13.60
2010,05,18,04,11,13.60
2010,05,18,04,12,13.60
2010,05,18,04,13,13.60
2010,05,18,04,14,13.60
2010,05,18,04,15,13.60
2010,05,18,04,16,13.60
2010,05,18,04,17,13.60
2010,05,18,04,18,13.60
2010,05,18,04,19,13.60
2010,05,18,04,20,13.60
2010,05,18,04,21,13.60
2010,05,18,04,22,13.60
2010,05,18,04,23,13.70
2010,05,18,04,24,13.70
2010,05,18,04,25,13.70
2010,05,18,04,26,13.70
2010,05,18,04,27,13.70
2010,05,18,04,28,13.70
2010,05,18,04,29,13.70
2010,05,18,04,30,13.70
2010,05,18,04,31,13.70
2010,05,18,04,32,13.70
2010,05,18,04,33,13.70
2010,05,18,04,34,13.60
2010,05,18,04,35,13.60
2010,05,18,04,36,13.60
2010,05,18,04,37,13.60
2010,05,18,04,38,13.60
2010,05,18,04,39,13.60
2010,05,18,04,40,13.60
2010,05,18,04,41,13.60
2010,05,18,04,42,13.50
2010,05,18,04,43,13.50
2010,05,18,04,44,13.50
2010,05,18,04,45,13.50
2010,05,18,04,46,13.40
2010,05,18,04,47,13.40
2010,05,18,04,48,13.40
2010,05,18,04,49,13.40
2010,05,18,04,50,13.40
2010,05,18,04,51,13.40
2010,05,18,04,52,13.40
2010,05,18,04,53,13.40
2010,05,18,04,54,13.40
2010,05,18,04,55,13.40
2010,05,18,04,56,13.40
2010,05,18,04,57,13.40
2010,05,18,04,58,13.40
2010,05,18,04,59,13.40
2010,05,18,05,00,13.30
2010,05,18,05,01,13.30
2010,05,18,05,02,13.30
2010,05,18,05,03,13.30
2010,05,18,05,04,13.30
2010,05,18,05,05,13.20
2010,05,18,05,06,13.20
2010,05,18,05,07,13.20
2010,05,18,05,08,13.20
2010,05,18,05,09,13.10
2010,05,18,05,10,13.10
2010,05,18,05,11,13.10
2010,05,18,05,12,13.10
2010,05,18,05,13,13.10
2010,05,18,05,14,13.00
2010,05,18,05,15,13.00
2010,05,18,05,16,13.00
2010,05,18,05,17,12.90
2010,05,18,05,18,12.90
2010,05,18,05,19,12.90
2010,05,18,05,20,13.00
2010,05,18,05,21,13.00
2010,05,18,05,22,13.10
2010,05,18,05,23,13.10
2010,05,18,05,24,13.10
2010,05,18,05,25,13.10
2010,05,18,05,26,13.10
2010,05,18,05,27,13.00
2010,05,18,05,28,13.00
2010,05,18,05,29,12.90
2010,05,18,05,30,12.80
2010,05,18,05,31,12.80
2010,05,18,05,32,12.80
2010,05,18,05,33,12.70
2010,05,18,05,34,12.70
2010,05,18,05,35,12.70
2010,05,18,05,36,12.70
2010,05,18,05,37,12.60
2010,05,18,05,38,12.60
2010,05,18,05,39,12.60
2010,05,18,05,40,12.60
2010,05,18,05,41,12.60
2010,05,18,05,42,12.60
2010,05,18,05,43,12.50
2010,05,18,05,44,12.50
2010,05,18,05,45,12.50
2010,05,18,05,46,12.40
2010,05,18,05,47,12.30
2010,05,18,05,48,12.30
2010,05,18,05,49,12.20
2010,05,18,05,50,12.10
2010,05,18,05,51,12.10
2010,05,18,05,52,12.00
2010,05,18,05,53,11.90
2010,05,18,05,54,11.90
2010,05,18,05,55,11.80
2010,05,18,05,56,11.70
2010,05,18,05,57,11.70
2010,05,18,05,58,11.60
2010,05,18,05,59,11.60
2010,05,18,06,00,11.60
2010,05,18,06,01,11.50
2010,05,18,06,02,11.50
2010,05,18,06,03,11.40
2010,05,18,06,04,11.40
2010,05,18,06,05,11.40
2010,05,18,06,06,11.30
2010,05,18,06,07,11.30
2010,05,18,06,08,11.30
2010,05,18,06,09,11.30
2010,05,18,06,10,11.30
2010,05,18,06,11,11.20
2010,05,18,06,12,11.20
2010,05,18,06,13,11.20
2010,05,18,06,14,11.20
2010,05,18,06,15,11.20
2010,05,18,06,16,11.20
2010,05,18,06,17,11.20
2010,05,18,06,18,11.20
2010,05,18,06,19,11.20
2010,05,18,06,20,11.10
2010,05,18,06,21,11.10
2010,05,18,06,22,11.10
2010,05,18,06,23,11.10
2010,05,18,06,24,11.10
2010,05,18,06,25,11.10
2010,05,18,06,26,11.10
2010,05,18,06,27,11.10
2010,05,18,06,28,11.10
2010,05,18,06,29,11.10
2010,05,18,06,30,11.10
2010,05,18,06,31,11.00
2010,05,18,06,32,11.00
2010,05,18,06,33,10.90
2010,05,18,06,34,10.90
2010,05,18,06,35,10.90
2010,05,18,06,36,10.90
2010,05,18,06,37,10.90
2010,05,18,06,38,10.90
2010,05,18,06,39,10.80
2010,05,18,06,40,10.80
2010,05,18,06,41,10.80
2010,05,18,06,42,10.80
2010,05,18,06,43,10.80
2010,05,18,06,44,10.80
2010,05,18,06,45,10.80
2010,05,18,06,46,10.80
2010,05,18,06,47,10.70
2010,05,18,06,48,10.70
2010,05,18,06,49,10.70
2010,05,18,06,50,10.70
2010,05,18,06,51,10.70
2010,05,18,06,52,10.70
2010,05,18,06,53,10.70
2010,05,18,06,54,10.70
2010,05,18,06,55,10.70
2010,05,18,06,56,10.70
2010,05,18,06,57,10.70
2010,05,18,06,58,10.70
2010,05,18,06,59,10.70
2010,05,18,07,00,10.70
2010,05,18,07,01,10.60
2010,05,18,07,02,10.60
2010,05,18,07,03,10.60
2010,05,18,07,04,10.60
2010,05,18,07,05,10.60
2010,05,18,07,06,10.60
2010,05,18,07,07,10.60
2010,05,18,07,08,10.60
2010,05,18,07,09,10.60
2010,05,18,07,10,10.60
2010,05,18,07,11,10.60
2010,05,18,07,12,10.60
2010,05,18,07,13,10.60
2010,05,18,07,14,10.60
2010,05,18,07,15,10.60
2010,05,18,07,16,10.60
2010,05,18,07,17,10.60
2010,05,18,07,18,10.60
2010,05,18,07,19,10.60
2010,05,18,07,20,10.60
2010,05,18,07,21,10.60
2010,05,18,07,22,10.60
2010,05,18,07,23,10.60
2010,05,18,07,24,10.60
2010,05,18,07,25,10.60
2010,05,18,07,26,10.60
2010,05,18,07,27,10.60
2010,05,18,07,28,10.60
2010,05,18,07,29,10.60
2010,05,18,07,30,10.60
2010,05,18,07,31,10.60
2010,05,18,07,32,10.60
2010,05,18,07,33,10.60
2010,05,18,07,34,10.60
2010,05,18,07,35,10.60
2010,05,18,07,36,10.60
2010,05,18,07,37,10.60
2010,05,18,07,38,10.60
2010,05,18,07,39,10.70
2010,05,18,07,40,10.70
2010,05,18,07,41,10.70
2010,05,18,07,42,10.70
2010,05,18,07,43,10.70
2010,05,18,07,44,10.70
2010,05,18,07,45,10.70
2010,05,18,07,46,10.70
2010,05,18,07,47,10.70
2010,05,18,07,48,10.70
2010,05,18,07,49,10.70
2010,05,18,07,50,10.80
2010,05,18,07,51,10.80
2010,05,18,07,52,10.80
2010,05,18,07,53,10.80
2010,05,18,07,54,10.80
2010,05,18,07,55,10.80
2010,05,18,07,56,10.80
2010,05,18,07,57,10.80
2010,05,18,07,58,10.80
2010,05,18,07,59,10.80
2010,05,18,08,00,10.80
2010,05,18,08,01,10.80
2010,05,18,08,02,10.80
2010,05,18,08,03,10.80
2010,05,18,08,04,10.80
2010,05,18,08,05,10.80
2010,05,18,08,06,10.70
2010,05,18,08,07,10.70
2010,05,18,08,08,10.70
2010,05,18,08,09,10.70
2010,05,18,08,10,10.70
2010,05,18,08,11,10.70
2010,05,18,08,12,10.70
2010,05,18,08,13,10.70
2010,05,18,08,14,10.70
2010,05,18,08,15,10.70
2010,05,18,08,16,10.70
2010,05,18,08,17,10.70
2010,05,18,08,18,10.70
2010,05,18,08,19,10.70
2010,05,18,08,20,10.70
2010,05,18,08,21,10.70
2010,05,18,08,22,10.70
2010,05,18,08,23,10.70
2010,05,18,08,24,10.70
2010,05,18,08,25,10.70
2010,05,18,08,26,10.70
2010,05,18,08,27,10.70
2010,05,18,08,28,10.70
2010,05,18,08,29,10.70
2010,05,18,08,30,10.60
2010,05,18,08,31,10.70
2010,05,18,08,32,10.70
2010,05,18,08,33,10.60
2010,05,18,08,34,10.60
2010,05,18,08,35,10.60
2010,05,18,08,36,10.60
2010,05,18,08,37,10.60
2010,05,18,08,38,10.60
2010,05,18,08,39,10.60
2010,05,18,08,40,10.60
2010,05,18,08,41,10.60
2010,05,18,08,42,10.60
2010,05,18,08,43,10.60
2010,05,18,08,44,10.60
2010,05,18,08,45,10.60
2010,05,18,08,46,10.60
2010,05,18,08,47,10.60
2010,05,18,08,48,10.60
2010,05,18,08,49,10.60
2010,05,18,08,50,10.60
2010,05,18,08,51,10.60
2010,05,18,08,52,10.60
2010,05,18,08,53,10.60
2010,05,18,08,54,10.60
2010,05,18,08,55,10.60
2010,05,18,08,56,10.60
2010,05,18,08,57,10.60
2010,05,18,08,58,10.60
2010,05,18,08,59,10.60
2010,05,18,09,00,10.60
2010,05,18,09,01,10.60
2010,05,18,09,02,10.60
2010,05,18,09,03,10.60
2010,05,18,09,04,10.60
2010,05,18,09,05,10.60
2010,05,18,09,06,10.60
2010,05,18,09,07,10.60
2010,05,18,09,08,10.60
2010,05,18,09,09,10.60
2010,05,18,09,10,10.60
2010,05,18,09,11,10.60
2010,05,18,09,12,10.60
2010,05,18,09,13,10.60
2010,05,18,09,14,10.60
2010,05,18,09,15,10.60
2010,05,18,09,16,10.60
2010,05,18,09,17,10.60
2010,05,18,09,18,10.60
2010,05,18,09,19,10.60
2010,05,18,09,20,10.60
2010,05,18,09,21,10.60
2010,05,18,09,22,10.60
2010,05,18,09,23,10.60
2010,05,18,09,24,10.60
2010,05,18,09,25,10.60
2010,05,18,09,26,10.60
2010,05,18,09,27,10.60
2010,05,18,09,28,10.60
2010,05,18,09,29,10.60
2010,05,18,09,30,10.60
2010,05,18,09,31,10.60
2010,05,18,09,32,10.60
2010,05,18,09,33,10.60
2010,05,18,09,34,10.60
2010,05,18,09,35,10.60
2010,05,18,09,36,10.60
2010,05,18,09,37,10.60
2010,05,18,09,38,10.60
2010,05,18,09,39,10.60
2010,05,18,09,40,10.60
2010,05,18,09,41,10.60
2010,05,18,09,42,10.60
2010,05,18,09,43,10.60
2010,05,18,09,44,10.60
2010,05,18,09,45,10.70
2010,05,18,09,46,10.70
2010,05,18,09,47,10.70
2010,05,18,09,48,10.70
2010,05,18,09,49,10.70
2010,05,18,09,50,10.70
2010,05,18,09,51,10.70
2010,05,18,09,52,10.70
2010,05,18,09,53,10.70
2010,05,18,09,54,10.70
2010,05,18,09,55,10.70
2010,05,18,09,56,10.70
2010,05,18,09,57,10.70
2010,05,18,09,58,10.70
2010,05,18,09,59,10.70
2010,05,18,10,00,10.70
2010,05,18,10,01,10.70
2010,05,18,10,02,10.70
2010,05,18,10,03,10.70
2010,05,18,10,04,10.70
2010,05,18,10,05,10.70
2010,05,18,10,06,10.70
2010,05,18,10,07,10.70
2010,05,18,10,08,10.80
2010,05,18,10,09,10.80
2010,05,18,10,10,10.80
2010,05,18,10,11,10.80
2010,05,18,10,12,10.80
2010,05,18,10,13,10.80
2010,05,18,10,14,10.80
2010,05,18,10,15,10.80
2010,05,18,10,16,10.80
2010,05,18,10,17,10.80
2010,05,18,10,18,10.80
2010,05,18,10,19,10.90
2010,05,18,10,20,10.90
2010,05,18,10,21,10.90
2010,05,18,10,22,10.90
2010,05,18,10,23,10.90
2010,05,18,10,24,10.90
2010,05,18,10,25,10.90
2010,05,18,10,26,10.90
2010,05,18,10,27,10.90
2010,05,18,10,28,10.90
2010,05,18,10,29,10.90
2010,05,18,10,30,10.90
2010,05,18,10,31,11.00
2010,05,18,10,32,11.00
2010,05,18,10,33,11.10
2010,05,18,10,34,11.10
2010,05,18,10,35,11.10
2010,05,18,10,36,11.10
2010,05,18,10,37,11.10
2010,05,18,10,38,11.10
2010,05,18,10,39,11.10
2010,05,18,10,40,11.20
2010,05,18,10,41,11.20
2010,05,18,10,42,11.20
2010,05,18,10,43,11.20
2010,05,18,10,44,11.20
2010,05,18,10,45,11.20
2010,05,18,10,46,11.20
2010,05,18,10,47,11.20
2010,05,18,10,48,11.20
2010,05,18,10,49,11.20
2010,05,18,10,50,11.20
2010,05,18,10,51,11.20
2010,05,18,10,52,11.20
2010,05,18,10,53,11.20
2010,05,18,10,54,11.20
2010,05,18,10,55,11.30
2010,05,18,10,56,11.30
2010,05,18,10,57,11.30
2010,05,18,10,58,11.30
2010,05,18,10,59,11.30
2010,05,18,11,00,11.30
2010,05,18,11,01,11.30
2010,05,18,11,02,11.30
2010,05,18,11,03,11.30
2010,05,18,11,04,11.30
2010,05,18,11,05,11.30
2010,05,18,11,06,11.30
2010,05,18,11,07,11.30
2010,05,18,11,08,11.30
2010,05,18,11,09,11.30
2010,05,18,11,10,11.30
2010,05,18,11,11,11.30
2010,05,18,11,12,11.30
2010,05,18,11,13,11.30
2010,05,18,11,14,11.30
2010,05,18,11,15,11.30
2010,05,18,11,16,11.30
2010,05,18,11,17,11.40
2010,05,18,11,18,11.40
2010,05,18,11,19,11.40
2010,05,18,11,20,11.40
2010,05,18,11,21,11.40
2010,05,18,11,22,11.40
2010,05,18,11,23,11.40
2010,05,18,11,24,11.50
2010,05,18,11,25,11.50
2010,05,18,11,26,11.50
2010,05,18,11,27,11.60
2010,05,18,11,28,11.60
2010,05,18,11,29,11.60
2010,05,18,11,30,11.60
2010,05,18,11,31,11.60
2010,05,18,11,32,11.60
2010,05,18,11,33,11.60
2010,05,18,11,34,11.60
2010,05,18,11,35,11.70
2010,05,18,11,36,11.70
2010,05,18,11,37,11.70
2010,05,18,11,38,11.70
2010,05,18,11,39,11.70
2010,05,18,11,40,11.70
2010,05,18,11,41,11.70
2010,05,18,11,42,11.70
2010,05,18,11,43,11.70
2010,05,18,11,44,11.70
2010,05,18,11,45,11.80
2010,05,18,11,46,11.80
2010,05,18,11,47,11.80
2010,05,18,11,48,11.90
2010,05,18,11,49,11.90
2010,05,18,11,50,11.90
2010,05,18,11,51,11.90
2010,05,18,11,52,11.90
2010,05,18,11,53,11.90
2010,05,18,11,54,12.00
2010,05,18,11,55,12.00
2010,05,18,11,56,12.00
2010,05,18,11,57,12.00
2010,05,18,11,58,12.10
2010,05,18,11,59,12.10
2010,05,18,12,00,12.10
2010,05,18,12,01,12.10
2010,05,18,12,02,12.10
2010,05,18,12,03,12.00
2010,05,18,12,04,12.00
2010,05,18,12,05,12.00
2010,05,18,12,06,12.00
2010,05,18,12,07,12.00
2010,05,18,12,08,12.00
2010,05,18,12,09,12.00
2010,05,18,12,10,12.00
2010,05,18,12,11,12.00
2010,05,18,12,12,12.00
2010,05,18,12,13,12.10
2010,05,18,12,14,12.10
2010,05,18,12,15,12.10
2010,05,18,12,16,12.10
2010,05,18,12,17,12.10
2010,05,18,12,18,12.10
2010,05,18,12,19,12.10
2010,05,18,12,20,12.20
2010,05,18,12,21,12.20
2010,05,18,12,22,12.20
2010,05,18,12,23,12.20
2010,05,18,12,24,12.20
2010,05,18,12,25,12.20
2010,05,18,12,26,12.20
2010,05,18,12,27,12.20
2010,05,18,12,28,12.20
2010,05,18,12,29,12.20
2010,05,18,12,30,12.20
2010,05,18,12,31,12.20
2010,05,18,12,32,12.20
2010,05,18,12,33,12.30
2010,05,18,12,34,12.30
2010,05,18,12,35,12.30
2010,05,18,12,36,12.40
2010,05,18,12,37,12.40
2010,05,18,12,38,12.50
2010,05,18,12,39,12.50
2010,05,18,12,40,12.50
2010,05,18,12,41,12.60
2010,05,18,12,42,12.60
2010,05,18,12,43,12.70
2010,05,18,12,44,12.70
2010,05,18,12,45,12.80
2010,05,18,12,46,12.90
2010,05,18,12,47,12.90
2010,05,18,12,48,13.00
2010,05,18,12,49,13.10
2010,05,18,12,50,13.10
2010,05,18,12,51,13.20
2010,05,18,12,52,13.20
2010,05,18,12,53,13.20
2010,05,18,12,54,13.20
2010,05,18,12,55,13.30
2010,05,18,12,56,13.30
2010,05,18,12,57,13.40
2010,05,18,12,58,13.40
2010,05,18,12,59,13.50
2010,05,18,13,00,13.60
2010,05,18,13,01,13.60
2010,05,18,13,02,13.60
2010,05,18,13,03,13.70
2010,05,18,13,04,13.70
2010,05,18,13,05,13.70
2010,05,18,13,06,13.70
2010,05,18,13,07,13.70
2010,05,18,13,08,13.80
2010,05,18,13,09,13.80
2010,05,18,13,10,13.90
2010,05,18,13,11,14.00
2010,05,18,13,12,14.10
2010,05,18,13,13,14.10
2010,05,18,13,14,14.10
2010,05,18,13,15,14.10
2010,05,18,13,16,14.20
2010,05,18,13,17,14.20
2010,05,18,13,18,14.30
2010,05,18,13,19,14.40
2010,05,18,13,20,14.40
2010,05,18,13,21,14.50
2010,05,18,13,22,14.50
2010,05,18,13,23,14.50
2010,05,18,13,24,14.60
2010,05,18,13,25,14.70
2010,05,18,13,26,14.80
2010,05,18,13,27,14.80
2010,05,18,13,28,14.70
2010,05,18,13,29,14.70
2010,05,18,13,30,14.70
2010,05,18,13,31,14.80
2010,05,18,13,32,14.80
2010,05,18,13,33,14.80
2010,05,18,13,34,14.80
2010,05,18,13,35,14.80
2010,05,18,13,36,14.80
2010,05,18,13,37,14.70
2010,05,18,13,38,14.70
2010,05,18,13,39,14.70
2010,05,18,13,40,14.70
2010,05,18,13,41,14.70
2010,05,18,13,42,14.70
2010,05,18,13,43,14.70
2010,05,18,13,44,14.70
2010,05,18,13,45,14.60
2010,05,18,13,46,14.70
2010,05,18,13,47,14.70
2010,05,18,13,48,14.70
2010,05,18,13,49,14.90
2010,05,18,13,50,15.00
2010,05,18,13,51,15.00
2010,05,18,13,52,15.00
2010,05,18,13,53,15.00
2010,05,18,13,54,15.00
2010,05,18,13,55,15.00
2010,05,18,13,56,15.00
2010,05,18,13,57,15.00
2010,05,18,13,58,15.00
2010,05,18,13,59,14.90
2010,05,18,14,00,15.00
2010,05,18,14,01,15.00
2010,05,18,14,02,15.00
2010,05,18,14,03,15.00
2010,05,18,14,04,15.00
2010,05,18,14,05,15.00
2010,05,18,14,06,15.00
2010,05,18,14,07,15.00
2010,05,18,14,08,15.00
2010,05,18,14,09,15.00
2010,05,18,14,10,15.00
2010,05,18,14,11,15.20
2010,05,18,14,12,15.30
2010,05,18,14,13,15.30
2010,05,18,14,14,15.40
2010,05,18,14,15,15.50
2010,05,18,14,16,15.50
2010,05,18,14,17,15.50
2010,05,18,14,18,15.50
2010,05,18,14,19,15.50
2010,05,18,14,20,15.60
2010,05,18,14,21,15.60
2010,05,18,14,22,15.60
2010,05,18,14,23,15.60
2010,05,18,14,24,15.60
2010,05,18,14,25,15.60
2010,05,18,14,26,15.60
2010,05,18,14,27,15.60
2010,05,18,14,28,15.60
2010,05,18,14,29,15.70
2010,05,18,14,30,15.80
2010,05,18,14,31,15.80
2010,05,18,14,32,15.90
2010,05,18,14,33,16.00
2010,05,18,14,34,16.00
2010,05,18,14,35,16.00
2010,05,18,14,36,16.00
2010,05,18,14,37,16.10
2010,05,18,14,38,16.10
2010,05,18,14,39,16.10
2010,05,18,14,40,16.00
2010,05,18,14,41,15.90
2010,05,18,14,42,15.90
2010,05,18,14,43,15.90
2010,05,18,14,44,15.80
2010,05,18,14,45,15.70
2010,05,18,14,46,15.60
2010,05,18,14,47,15.60
2010,05,18,14,48,15.60
2010,05,18,14,49,15.60
2010,05,18,14,50,15.60
2010,05,18,14,51,15.60
2010,05,18,14,52,15.60
2010,05,18,14,53,15.60
2010,05,18,14,54,15.40
2010,05,18,14,55,15.30
2010,05,18,14,56,15.30
2010,05,18,14,57,15.10
2010,05,18,14,58,15.00
2010,05,18,14,59,15.00
2010,05,18,15,00,15.00
2010,05,18,15,01,15.00
2010,05,18,15,02,15.00
2010,05,18,15,03,14.90
2010,05,18,15,04,14.90
2010,05,18,15,05,14.90
2010,05,18,15,06,14.90
2010,05,18,15,07,15.00
2010,05,18,15,08,15.00
2010,05,18,15,09,15.00
2010,05,18,15,10,15.00
2010,05,18,15,11,15.00
2010,05,18,15,12,15.00
2010,05,18,15,13,15.10
2010,05,18,15,14,15.30
2010,05,18,15,15,15.40
2010,05,18,15,16,15.60
2010,05,18,15,17,15.70
2010,05,18,15,18,15.80
2010,05,18,15,19,15.80
2010,05,18,15,20,15.90
2010,05,18,15,21,15.90
2010,05,18,15,22,15.90
2010,05,18,15,23,15.90
2010,05,18,15,24,15.80
2010,05,18,15,25,15.90
2010,05,18,15,26,15.90
2010,05,18,15,27,15.80
2010,05,18,15,28,15.80
2010,05,18,15,29,15.80
2010,05,18,15,30,15.70
2010,05,18,15,31,15.70
2010,05,18,15,32,15.60
2010,05,18,15,33,15.50
2010,05,18,15,34,15.50
2010,05,18,15,35,15.50
2010,05,18,15,36,15.40
2010,05,18,15,37,15.40
2010,05,18,15,38,15.40
2010,05,18,15,39,15.40
2010,05,18,15,40,15.40
2010,05,18,15,41,15.50
2010,05,18,15,42,15.50
2010,05,18,15,43,15.50
2010,05,18,15,44,15.50
2010,05,18,15,45,15.60
2010,05,18,15,46,15.60
2010,05,18,15,47,15.50
2010,05,18,15,48,15.40
2010,05,18,15,49,15.40
2010,05,18,15,50,15.30
2010,05,18,15,51,15.20
2010,05,18,15,52,15.10
2010,05,18,15,53,15.10
2010,05,18,15,54,15.10
2010,05,18,15,55,15.20
2010,05,18,15,56,15.20
2010,05,18,15,57,15.30
2010,05,18,15,58,15.30
2010,05,18,15,59,15.40
2010,05,18,16,00,15.50
2010,05,18,16,01,15.60
2010,05,18,16,02,15.70
2010,05,18,16,03,15.80
2010,05,18,16,04,15.90
2010,05,18,16,05,16.00
2010,05,18,16,06,16.20
2010,05,18,16,07,16.20
2010,05,18,16,08,16.30
2010,05,18,16,09,16.30
2010,05,18,16,10,16.30
2010,05,18,16,11,16.20
2010,05,18,16,12,16.20
2010,05,18,16,13,16.10
2010,05,18,16,14,16.10
2010,05,18,16,15,16.10
2010,05,18,16,16,16.10
2010,05,18,16,17,16.10
2010,05,18,16,18,16.10
2010,05,18,16,19,16.20
2010,05,18,16,20,16.20
2010,05,18,16,21,16.30
2010,05,18,16,22,16.50
2010,05,18,16,23,16.60
2010,05,18,16,24,16.70
2010,05,18,16,25,16.80
2010,05,18,16,26,16.90
2010,05,18,16,27,16.90
2010,05,18,16,28,17.00
2010,05,18,16,29,17.10
2010,05,18,16,30,17.10
2010,05,18,16,31,17.20
2010,05,18,16,32,17.10
2010,05,18,16,33,17.10
2010,05,18,16,34,17.00
2010,05,18,16,35,17.00
2010,05,18,16,36,17.00
2010,05,18,16,37,17.00
2010,05,18,16,38,16.90
2010,05,18,16,39,16.90
2010,05,18,16,40,16.90
2010,05,18,16,41,16.80
2010,05,18,16,42,16.80
2010,05,18,16,43,16.70
2010,05,18,16,44,16.60
2010,05,18,16,45,16.50
2010,05,18,16,46,16.50
2010,05,18,16,47,16.50
2010,05,18,16,48,16.50
2010,05,18,16,49,16.60
2010,05,18,16,50,16.70
2010,05,18,16,51,16.80
2010,05,18,16,52,16.90
2010,05,18,16,53,17.00
2010,05,18,16,54,17.10
2010,05,18,16,55,17.20
2010,05,18,16,56,17.20
2010,05,18,16,57,17.30
2010,05,18,16,58,17.30
2010,05,18,16,59,17.40
2010,05,18,17,00,17.40
2010,05,18,17,01,17.40
2010,05,18,17,02,17.40
2010,05,18,17,03,17.40
2010,05,18,17,04,17.40
2010,05,18,17,05,17.40
2010,05,18,17,06,17.40
2010,05,18,17,07,17.40
2010,05,18,17,08,17.40
2010,05,18,17,09,17.40
2010,05,18,17,10,17.30
2010,05,18,17,11,17.30
2010,05,18,17,12,17.30
2010,05,18,17,13,17.30
2010,05,18,17,14,17.40
2010,05,18,17,15,17.40
2010,05,18,17,16,17.40
2010,05,18,17,17,17.30
2010,05,18,17,18,17.20
2010,05,18,17,19,17.10